This is the latest recevied weather packets stored in our database for station/object N3WMC. If no packets are shown the sender has not sent any weather packets the latest 10 day(s).
| Time | Temp. | Humidity | Pressure | Rain* | Wind** | Luminosity | Snow |
|---|---|---|---|---|---|---|---|
| 1787696470 | 25° C | 59% | 1019.1 hPa | 0 mm | - | 106 W/m² | - |
| 1787696166 | 25° C | 59% | 1019.3 hPa | 0 mm | - | 121 W/m² | - |
| 1787695864 | 25.56° C | 59% | 1019.1 hPa | 0 mm | - | 64 W/m² | - |
| 1787695561 | 24.44° C | 60% | 1019.1 hPa | 0 mm | - | 102 W/m² | - |
| 1787695257 | 25° C | 60% | 1019.1 hPa | 0 mm | - | 51 W/m² | - |
| 1787694956 | 25.56° C | 57% | 1019 hPa | 0 mm | - | 58 W/m² | - |
| 1787694650 | 26.67° C | 56% | 1019 hPa | 0 mm | - | 101 W/m² | - |
| 1787694346 | 26.67° C | 55% | 1019.1 hPa | 0 mm | - | 199 W/m² | - |
| 1787694041 | 27.78° C | 52% | 1019 hPa | 0 mm | - | 203 W/m² | - |
| 1787693737 | 26.67° C | 54% | 1019 hPa | 0 mm | - | 221 W/m² | - |
| 1787693433 | 26.67° C | 54% | 1018.9 hPa | 0 mm | - | 220 W/m² | - |
| 1787693129 | 26.67° C | 54% | 1018.8 hPa | 0 mm | - | 225 W/m² | - |
| 1787692825 | 26.67° C | 54% | 1018.9 hPa | 0 mm | - | 233 W/m² | - |
| 1787692525 | 27.22° C | 55% | 1019.1 hPa | 0 mm | - | 262 W/m² | - |
| 1787692224 | 26.67° C | 53% | 1019 hPa | 0 mm | - | 290 W/m² | - |
| 1787691919 | 26.11° C | 55% | 1018.9 hPa | 0 mm | - | 282 W/m² | - |
| 1787691618 | 26.11° C | 57% | 1019.1 hPa | 0 mm | - | 133 W/m² | - |
| 1787691316 | 26.67° C | 56% | 1018.9 hPa | 0 mm | - | 300 W/m² | - |
| 1787691011 | 27.22° C | 55% | 1018.7 hPa | 0 mm | - | 312 W/m² | - |
| 1787690706 | 26.67° C | 53% | 1018.9 hPa | 0 mm | - | 311 W/m² | - |
| 1787690401 | 26.67° C | 55% | 1018.8 hPa | 0 mm | - | 326 W/m² | - |
| 1787690098 | 26.67° C | 56% | 1018.8 hPa | 0 mm | - | 304 W/m² | - |
| 1787689793 | 25.56° C | 57% | 1018.9 hPa | 0 mm | - | 344 W/m² | - |
| 1787689489 | 25.56° C | 58% | 1018.8 hPa | 0 mm | - | 344 W/m² | - |
| 1787689188 | 25.56° C | 60% | 1018.7 hPa | 0 mm | - | 354 W/m² | - |
* Rain latest hour (hover to see other rain measurements)
** Current wind speed in m/s (hover to see current wind gust speed)